"Pseudo-MPEC" for ZTm0011

Created 2022 Nov 29 16:22:30 UT using Find_Orb

Click here for an explanation of pseudo-MPECs

 
 Astrometry: 
     ZTm0011* C2022 11 06.53010 11 58 38.22 +12 20 16.9    ~BE57 19.97rUNEOCPI41
     ZTm0011  C2022 11 06.53256 11 58 38.24 +12 20 20.0    ~BE57 19.99rUNEOCPI41
     ZTm0011  C2022 11 06.53502 11 58 38.19 +12 20 22.6    ~BE57 19.96rUNEOCPI41
     ZTm0011  C2022 11 06.53749 11 58 38.24 +12 20 24.9    ~BE57 19.89rUNEOCPI41

Station data:
(I41) Palomar Mountain--ZTF  (N33.357338 W116.859780)  US/California.
   Observers B. T. Bolin, Z. T. F. Collaboration. Measurers B. T. Bolin,
   Z.-Y. Lin, F. J. Masci. 1.2-m f/2.4 Schmidt.

Orbital elements:  ZTm0011
   Perihelion 2022 Jun 6.19304 +/- 26.4 TT =  4:37:58 (JD 2459736.69304)
Epoch 2022 Nov  7.0 TT = JDT 2459890.5   Earth MOID: 0.0074   AutoNEOCP
M 166.57349978 +/- 39               (J2000 ecliptic)
n   1.08300364 +/- 0.949            Peri.  261.79418 +/- 60
a   0.93910921 +/- 0.548            Node   335.55470 +/- 80
e   0.0442191 +/- 0.215             Incl.    0.22224 +/- 60
P   0.91/332.40d           H 23.2   G  0.15   U 12.7  SR
q 0.89758257 +/- 0.45    Q 0.98063585 +/- 25.7
From 4 observations 2022 Nov. 6 (10.6 min); mean residual 0".26
Residuals in arcseconds: 
221106 I41  .02+  .21-    221106 I41  .53-  .17+    
221106 I41  .22+  .22+    221106 I41  .27+  .19-    

Ephemerides (geocentric):
Date (UTC) HH   RA             Dec           delta  r     elong  mag " sig PA
---- --------  ------------   ------------  ------ ------ -----  --- --------
2022 11 29 16  13 43 24.496   +12 17 11.05  .00984 .98031  51.4 18??  72d   9
2022 11 29 17  13 43 48.503   +12 16 21.47  .00982 .98031  51.3 18??  72d   9
2022 11 29 18  13 44 12.585   +12 15 31.51  .00981 .98031  51.3 18??  72d   9
2022 11 29 19  13 44 36.743   +12 14 41.17  .00979 .98030  51.2 18??  72d   9
2022 11 29 20  13 45 00.976   +12 13 50.45  .00978 .98030  51.2 18??  72d   9
2022 11 29 21  13 45 25.285   +12 12 59.35  .00976 .98029  51.1 18??  72d   9
2022 11 29 22  13 45 49.669   +12 12 07.86  .00975 .98029  51.1 18??  72d   9
2022 11 29 23  13 46 14.130   +12 11 15.99  .00973 .98028  51.0 18??  72d   9
2022 11 30 00  13 46 38.668   +12 10 23.73  .00972 .98028  51.0 18??  72d   9
2022 11 30 01  13 47 03.282   +12 09 31.07  .00971 .98028  50.9 18??  72d   9
2022 11 30 02  13 47 27.973   +12 08 38.02  .00969 .98027  50.9 18??  72d   9
2022 11 30 03  13 47 52.742   +12 07 44.57  .00968 .98027  50.8 18??  72d   9
2022 11 30 04  13 48 17.588   +12 06 50.72  .00966 .98026  50.8 18??  72d   9
2022 11 30 05  13 48 42.511   +12 05 56.47  .00965 .98026  50.7 18??  72d   9
2022 11 30 06  13 49 07.513   +12 05 01.82  .00963 .98025  50.7 18??  72d   9
2022 11 30 07  13 49 32.593   +12 04 06.76  .00962 .98025  50.7 18??  73d   9
2022 11 30 08  13 49 57.751   +12 03 11.29  .00960 .98024  50.6 18??  73d   9
2022 11 30 09  13 50 22.988   +12 02 15.41  .00959 .98024  50.5 18??  73d   9
2022 11 30 10  13 50 48.304   +12 01 19.11  .00957 .98024  50.5 18??  73d   9
2022 11 30 11  13 51 13.699   +12 00 22.40  .00956 .98023  50.4 18??  73d   8
2022 11 30 12  13 51 39.174   +11 59 25.27  .00954 .98023  50.4 18??  73d   8
2022 11 30 13  13 52 04.729   +11 58 27.71  .00953 .98022  50.3 18??  73d   8
2022 11 30 14  13 52 30.363   +11 57 29.74  .00952 .98022  50.3 18??  73d   8
2022 11 30 15  13 52 56.078   +11 56 31.33  .00950 .98021  50.2 18??  73d   8
2022 11 30 16  13 53 21.873   +11 55 32.50  .00949 .98021  50.2 18??  73d   8
2022 11 30 17  13 53 47.749   +11 54 33.24  .00947 .98020  50.1 18??  73d   8
2022 11 30 18  13 54 13.706   +11 53 33.54  .00946 .98020  50.1 18??  73d   8
2022 11 30 19  13 54 39.744   +11 52 33.40  .00944 .98019  50.0 18??  73d   8
2022 11 30 20  13 55 05.863   +11 51 32.82  .00943 .98019  50.0 18??  73d   8
2022 11 30 21  13 55 32.064   +11 50 31.81  .00941 .98018  49.9 18??  73d   8
2022 11 30 22  13 55 58.348   +11 49 30.35  .00940 .98018  49.9 18??  73d   8
2022 11 30 23  13 56 24.713   +11 48 28.44  .00939 .98017  49.8 18??  73d   8
2022 12 01 00  13 56 51.161   +11 47 26.08  .00937 .98017  49.8 18??  73d   8
2022 12 01 01  13 57 17.692   +11 46 23.27  .00936 .98016  49.7 18??  73d   8
2022 12 01 02  13 57 44.305   +11 45 20.00  .00934 .98016  49.6 18??  74d   8
2022 12 01 03  13 58 11.002   +11 44 16.28  .00933 .98015  49.6 18??  74d   8
2022 12 01 04  13 58 37.782   +11 43 12.09  .00932 .98015  49.5 18??  74d   8
2022 12 01 05  13 59 04.646   +11 42 07.45  .00930 .98014  49.5 18??  74d   8
2022 12 01 06  13 59 31.594   +11 41 02.34  .00929 .98014  49.4 18??  74d   8
2022 12 01 07  13 59 58.626   +11 39 56.76  .00927 .98013  49.4 18??  74d   8
2022 12 01 08  14 00 25.743   +11 38 50.70  .00926 .98013  49.3 18??  74d   8
2022 12 01 09  14 00 52.944   +11 37 44.18  .00924 .98012  49.3 18??  74d   8
2022 12 01 10  14 01 20.230   +11 36 37.18  .00923 .98012  49.2 18??  74d   8
2022 12 01 11  14 01 47.601   +11 35 29.70  .00922 .98011  49.1 18??  74d   8
2022 12 01 12  14 02 15.058   +11 34 21.74  .00920 .98011  49.1 18??  74d   8
2022 12 01 13  14 02 42.601   +11 33 13.29  .00919 .98010  49.0 18??  74d   8
2022 12 01 14  14 03 10.229   +11 32 04.36  .00917 .98010  49.0 18??  74d   8
2022 12 01 15  14 03 37.944   +11 30 54.94  .00916 .98009  48.9 18??  74d   8